Wind_Speed
5 1 5 2 1 3 3 3 2 4 3 2 19 8 10 12 0 3 24 19 24 22 21 19 18 17 18 19 20 20 19 24 26 27 32 31 28 28 22 20 21 20 22 22 21 20 20 19 18
3 2 1 0 3 3 2 3 3 1 9 23 16 11 10 5 8 23 27 21 23 22 22 20 20 18 19 19 20 20 19 21 23 27 28 29 27 20 20 20 20 21 20 20 19 19 16 14 12
1 2 2 1 2 3 4 3 8 13 10 9 6 12 5 5 19 28 22 28 24 23 22 21 20 19 18 18 19 20 20 20 21 20 21 19 18 19 18 18 18 19 19 18 17 15 14 15 14
2 1 2 2 2 2 6 8 17 9 14 13 13 7 11 8 16 20 27 26 24 23 22 21 19 18 17 18 19 21 21 22 23 18 17 17 18 17 16 16 17 17 17 15 14 13 13 14 13
3 2 3 2 2 5 8 16 15 6 6 14 9 7 6 13 18 23 27 25 23 23 21 20 18 17 17 20 20 21 21 22 24 19 17 17 16 15 15 16 16 15 15 14 13 13 13 13 11
3 2 4 3 2 4 8 17 13 16 20 21 18 13 5 18 19 23 24 23 22 22 21 19 18 17 19 21 20 21 21 21 21 19 18 17 15 16 16 18 16 15 15 14 15 15 12 10 8
5 3 3 8 7 3 6 15 12 18 19 12 18 4 15 21 21 25 23 21 20 20 20 18 18 18 20 20 20 20 21 19 19 18 17 16 16 16 17 17 17 17 17 19 21 16 13 10 8
7 2 5 2 5 4 9 5 15 18 7 21 27 7 12 25 23 22 20 22 21 20 20 20 19 20 20 19 19 19 19 19 18 17 16 16 16 16 18 17 17 18 20 21 19 15 10 7 4
8 3 3 2 1 2 7 2 14 3 23 8 7 22 28 27 25 20 22 23 22 21 20 21 21 20 20 19 20 19 19 19 18 17 16 16 18 19 19 18 18 21 21 20 16 13 10 5 2
3 2 6 6 1 2 11 12 11 10 18 15 21 28 30 29 25 22 26 26 24 22 21 20 21 21 21 21 19 20 20 20 19 18 17 17 19 20 19 20 21 22 21 18 15 11 8 4 2
4 2 3 6 9 7 7 7 5 22 5 26 33 34 32 32 27 23 25 24 23 22 22 20 19 20 20 20 19 18 19 19 18 18 18 18 20 21 22 23 23 21 18 15 11 7 4 1 1
3 4 1 4 4 3 6 10 11 15 10 31 34 37 35 33 30 25 24 24 24 25 22 21 19 19 20 19 18 18 19 19 19 19 18 18 21 21 22 23 20 18 15 15 12 10 6 5 3
4 7 3 2 4 8 12 19 10 15 26 33 35 35 35 32 29 25 22 22 24 23 24 21 19 19 19 19 18 18 19 20 20 17 18 20 20 23 26 22 16 15 15 16 14 10 6 6 4
9 12 7 8 8 22 14 4 13 16 29 36 37 37 35 32 30 28 27 25 23 24 25 22 18 19 18 18 17 16 18 21 20 19 20 21 22 25 24 19 14 14 13 13 12 7 3 2 1
20 9 9 9 9 8 7 4 6 32 32 33 34 38 36 33 30 28 27 27 25 23 22 21 18 14 17 15 18 15 17 21 22 20 20 22 26 27 21 16 13 13 13 12 9 3 1 1 5
3 5 4 6 6 7 3 5 6 30 32 29 31 36 36 33 32 28 28 27 27 24 20 18 18 16 16 19 18 17 17 19 21 20 22 26 26 24 20 15 14 13 13 10 6 1 2 3 2
4 3 6 5 19 4 9 2 14 27 29 28 29 30 33 35 33 33 29 29 29 26 22 21 20 18 16 18 21 19 18 18 19 21 25 28 24 21 19 16 17 14 12 7 3 3 4 2 3
4 4 2 6 5 12 8 7 15 27 28 30 29 32 30 36 36 35 34 30 29 26 24 21 22 20 20 20 21 19 19 20 19 19 25 27 23 18 14 15 13 14 10 6 3 5 2 2 7
5 3 7 9 9 8 17 5 15 27 23 25 28 29 32 32 39 36 37 34 34 30 28 23 23 24 25 23 23 21 19 19 19 20 20 26 22 17 16 15 13 11 8 6 6 4 4 5 8
5 7 6 9 9 7 5 14 14 25 29 33 34 30 34 36 37 41 41 40 36 32 29 26 22 27 28 25 23 19 17 15 14 20 24 24 23 20 20 17 14 12 11 7 7 5 6 9 8
4 6 5 7 10 9 1 3 13 18 21 29 30 37 37 40 41 43 47 44 39 36 32 28 22 24 27 29 25 21 19 17 17 19 23 27 24 22 21 18 17 14 11 10 10 9 9 11 8
4 1 7 7 7 4 5 6 5 13 16 21 30 32 38 39 45 48 49 48 45 39 34 31 26 25 28 31 27 25 23 23 21 20 24 26 24 22 19 18 17 16 13 13 12 15 13 10 9
8 3 5 6 6 2 5 0 7 12 11 16 28 35 38 43 47 53 53 50 47 42 39 34 31 28 31 34 31 30 26 23 21 23 23 27 26 23 20 20 20 19 17 13 14 11 12 12 10
9 5 3 1 3 1 7 6 6 6 11 21 31 40 42 45 46 52 54 50 48 45 43 38 35 31 31 34 35 33 28 25 23 25 26 23 28 27 24 22 20 21 20 17 14 14 12 14 14
10 6 5 5 3 6 2 3 14 7 12 18 24 41 44 43 46 47 53 55 52 50 47 43 39 35 34 36 37 36 32 27 26 24 24 25 26 26 30 28 23 25 21 19 19 17 16 16 16
5 5 5 4 3 6 9 6 6 10 25 23 30 43 45 42 45 49 55 59 56 52 49 47 42 37 35 38 39 38 35 32 28 25 23 23 23 25 24 31 28 23 25 25 23 22 21 20 19
5 1 5 4 3 1 5 9 9 11 12 14 23 31 40 43 46 51 55 59 58 55 52 49 45 40 36 41 40 39 38 35 31 28 28 28 26 23 20 25 29 29 25 21 21 23 23 23 22
4 3 5 4 3 5 5 6 6 10 16 10 11 25 39 42 45 48 50 58 59 57 52 50 47 43 38 39 43 44 42 37 35 31 29 28 27 29 25 21 19 19 21 19 17 17 18 18 18
6 4 3 3 3 3 5 5 7 9 16 15 11 27 36 38 44 47 51 56 60 58 55 52 50 46 41 39 41 46 46 41 36 34 32 31 26 28 29 25 20 24 23 21 20 19 20 20 17
5 2 3 4 7 3 4 6 11 7 9 13 11 19 26 31 34 34 37 42 52 55 56 55 51 48 44 39 43 44 48 44 39 36 36 34 28 28 27 27 25 24 25 25 21 20 19 19 18
Wind_Direction
124 168 339 51 56 64 36 33 31 112 108 120 145 123 111 47 55 167 144 154 159 156 154 152 148 142 140 139 136 131 122 113 104 104 119 121 121 119 121 121 123 117 109 112 111 109 105 105 108
155 342 310 161 74 56 31 4 132 153 120 108 100 98 53 72 97 136 149 156 156 151 146 151 146 140 136 139 142 137 133 124 116 112 123 126 129 128 122 120 118 115 115 120 118 112 105 101 104
102 358 309 128 111 143 141 113 129 112 104 91 109 76 74 90 126 144 153 156 153 150 151 151 148 145 137 137 141 144 140 130 126 127 131 138 134 123 119 118 118 120 119 119 117 113 102 95 95
206 280 235 63 24 70 132 164 140 113 94 104 105 71 86 129 138 149 150 154 153 152 152 152 154 149 143 143 144 145 145 140 127 133 133 133 129 128 125 125 119 124 127 134 129 114 101 94 88
145 9 27 30 21 98 127 151 140 123 87 101 87 102 84 150 140 145 153 155 157 152 150 152 157 154 147 145 145 144 149 148 147 152 139 133 131 126 120 122 125 130 136 142 135 121 104 103 99
51 15 35 5 76 74 118 145 122 96 103 104 109 110 96 149 147 148 155 157 161 157 155 157 155 153 149 148 146 145 149 150 150 150 148 141 135 126 122 122 123 127 129 133 136 129 116 109 105
96 35 7 305 106 85 138 144 131 126 121 121 130 83 139 154 150 150 154 157 163 163 158 156 157 154 150 148 148 147 149 148 153 150 149 146 138 131 126 125 126 126 126 130 134 131 126 116 102
75 78 3 288 4 118 145 131 146 126 96 136 134 151 157 159 159 153 157 159 160 163 163 156 157 154 151 150 146 150 151 152 153 156 152 145 141 137 135 134 130 130 130 134 138 140 134 116 84
92 85 288 277 300 330 180 143 158 98 135 132 194 156 155 155 162 161 164 162 160 163 166 162 157 154 156 156 155 154 152 148 146 145 147 147 145 144 143 137 135 133 136 140 145 146 136 125 30
137 150 204 236 193 28 340 194 132 135 156 111 120 148 157 160 163 162 167 165 163 164 166 165 161 163 158 158 161 159 154 151 149 148 147 147 144 147 144 137 136 138 140 146 149 147 143 127 42
144 203 234 287 258 317 328 159 150 145 185 154 148 159 167 167 167 160 162 164 162 162 164 163 164 162 160 162 170 163 158 158 153 150 146 146 148 151 144 139 135 137 143 143 148 153 150 175 311
128 122 178 31 65 300 270 272 177 185 178 168 163 166 169 173 174 168 161 165 166 165 160 160 162 165 162 171 175 170 168 165 159 158 154 148 150 153 152 143 141 143 141 145 146 131 109 60 30
134 175 232 30 11 290 265 259 188 210 154 165 164 171 171 181 180 174 164 160 157 158 158 156 163 166 164 166 171 172 171 167 170 167 158 152 156 154 150 148 146 145 145 147 148 140 113 87 74
153 155 99 68 331 308 293 171 153 168 155 165 165 175 179 183 185 183 178 171 167 162 162 163 158 164 167 171 171 175 178 178 176 175 163 158 158 154 153 151 147 151 152 156 163 161 126 80 282
137 130 118 105 259 276 163 224 184 162 164 162 172 177 187 190 189 189 186 180 178 177 175 175 160 161 178 176 168 165 174 178 176 173 169 164 163 159 157 159 158 156 158 163 170 193 360 304 207
162 102 138 180 224 267 287 237 162 169 170 175 175 185 192 196 195 196 194 188 188 182 184 183 172 161 169 181 183 178 169 173 175 175 169 164 161 168 172 174 171 165 171 177 180 177 213 202 219
22 85 99 229 205 180 197 216 173 179 179 183 188 188 194 201 200 199 200 198 192 190 187 182 177 173 173 170 172 173 173 170 173 175 173 169 165 167 171 179 177 183 189 186 195 241 233 269 324
358 336 272 226 197 208 198 219 170 188 187 190 194 196 199 205 204 202 201 202 199 198 198 192 185 184 181 176 173 175 176 174 168 166 179 176 174 175 183 185 188 188 187 181 239 200 221 300 322
278 267 279 277 250 175 212 202 184 186 198 199 201 201 204 209 207 205 203 201 202 202 201 199 195 190 188 192 181 184 188 186 184 176 175 181 183 186 189 195 194 192 197 213 209 225 264 298 314
299 263 272 279 290 176 205 220 195 185 201 201 200 203 207 209 205 203 202 200 202 203 203 200 205 200 197 202 193 189 188 189 184 188 192 194 192 192 191 190 193 196 205 223 220 250 287 285 299
326 297 315 286 307 211 121 253 175 207 205 204 211 208 208 209 205 199 202 204 204 204 204 205 208 204 202 197 194 195 190 199 198 190 191 192 191 188 188 196 202 197 226 236 231 257 276 271 279
316 357 321 328 350 288 184 257 221 191 204 200 209 212 210 211 208 203 203 203 205 209 209 209 208 205 199 196 198 201 211 209 198 189 190 192 193 196 208 208 209 212 218 236 242 262 262 252 268
241 230 279 279 260 260 278 236 264 164 205 209 212 214 210 213 206 204 206 208 208 210 209 210 210 209 204 202 209 205 209 211 205 200 200 204 204 205 212 218 227 229 223 232 238 253 246 241 256
269 329 331 340 118 232 232 189 246 184 202 211 216 214 209 210 209 207 209 210 210 211 211 212 213 212 208 207 207 209 211 212 215 211 210 212 212 213 219 223 231 220 226 234 242 249 252 249 255
31 50 351 334 359 226 326 303 241 244 227 217 211 211 210 205 206 204 206 207 210 210 212 213 214 214 212 206 208 211 213 212 217 214 212 212 212 218 220 224 229 225 229 242 250 254 256 258 260
293 145 149 259 240 281 316 243 253 238 252 235 223 211 208 202 205 203 208 210 212 212 213 214 216 216 215 208 209 213 214 214 215 223 223 223 219 220 227 226 230 236 242 247 251 256 261 263 270
302 40 206 206 253 5 227 277 292 245 255 240 223 210 208 203 202 203 207 212 214 214 214 215 217 217 217 212 211 213 215 217 220 222 230 236 231 227 230 229 235 241 246 241 254 253 257 262 270
71 259 5 3 273 269 277 257 243 309 299 275 244 211 209 203 201 203 202 211 214 217 217 217 219 219 218 215 215 214 216 219 222 224 228 226 235 237 233 228 229 229 234 242 257 260 261 262 265
341 1 11 139 150 242 308 260 225 271 277 263 244 209 207 202 201 201 203 210 216 218 218 219 218 218 219 219 217 216 217 219 223 227 228 230 234 232 238 232 232 244 243 243 249 263 264 259 263
165 157 105 107 292 257 214 266 260 302 295 338 255 200 205 204 204 209 206 202 206 212 217 220 220 219 221 221 218 220 219 220 224 227 229 232 238 230 231 236 245 249 248 239 247 261 262 259 259
Height
1504 1505 1505 1506 1512 1511 1515 1511 1501 1503 1504 1505 1510 1512 1515 1518 1518 1531 1527 1531 1535 1538 1541 1543 1545 1546 1547 1547 1548 1548 1549 1550 1550 1550 1551 1552 1554 1554 1556 1557 1558 1559 1559 1560 1560 1561 1561 1561 1561
1501 1504 1505 1505 1516 1525 1520 1507 1508 1503 1504 1506 1511 1514 1516 1522 1521 1523 1528 1532 1537 1539 1542 1544 1546 1547 1548 1549 1549 1551 1552 1553 1554 1555 1557 1557 1557 1558 1558 1560 1561 1561 1562 1563 1564 1564 1565 1565 1565
1504 1505 1506 1506 1511 1521 1520 1508 1507 1506 1506 1506 1513 1516 1519 1524 1524 1526 1529 1534 1538 1541 1543 1545 1548 1549 1550 1551 1551 1553 1554 1555 1556 1557 1560 1560 1560 1561 1561 1563 1564 1565 1565 1566 1566 1567 1569 1569 1569
1504 1506 1507 1510 1510 1500 1503 1507 1507 1507 1509 1510 1514 1519 1524 1527 1528 1529 1532 1536 1539 1542 1545 1547 1549 1550 1552 1553 1554 1555 1556 1558 1559 1559 1561 1562 1562 1563 1564 1566 1567 1568 1569 1569 1569 1571 1572 1572 1572
1506 1506 1509 1509 1504 1500 1502 1506 1508 1506 1509 1512 1514 1522 1526 1529 1531 1532 1534 1538 1541 1543 1546 1548 1550 1551 1553 1555 1556 1557 1558 1560 1561 1561 1563 1564 1565 1566 1568 1569 1570 1571 1571 1572 1573 1574 1575 1575 1575
1505 1506 1514 1516 1506 1505 1505 1507 1508 1508 1511 1515 1519 1522 1529 1531 1532 1534 1537 1539 1542 1544 1547 1549 1551 1552 1554 1555 1558 1559 1560 1562 1563 1564 1565 1566 1567 1569 1570 1571 1572 1572 1573 1574 1575 1577 1578 1578 1578
1506 1511 1523 1521 1511 1511 1508 1509 1507 1511 1512 1518 1520 1525 1531 1533 1535 1535 1538 1541 1544 1546 1548 1550 1552 1554 1556 1558 1559 1561 1562 1563 1565 1566 1567 1568 1570 1571 1572 1573 1574 1575 1576 1577 1578 1580 1580 1581 1581
1509 1515 1520 1520 1518 1515 1511 1511 1512 1510 1514 1518 1519 1527 1530 1533 1536 1538 1540 1542 1544 1547 1549 1551 1553 1555 1557 1559 1561 1562 1563 1564 1566 1567 1568 1570 1571 1573 1574 1575 1576 1577 1579 1580 1581 1583 1584 1584 1584
1511 1520 1528 1521 1520 1518 1514 1515 1515 1514 1515 1519 1520 1523 1527 1532 1536 1539 1540 1542 1545 1547 1550 1552 1555 1557 1559 1560 1563 1564 1565 1565 1567 1568 1570 1571 1573 1574 1575 1577 1579 1580 1582 1583 1585 1586 1587 1587 1586
1519 1524 1522 1515 1515 1517 1519 1518 1514 1517 1520 1521 1522 1527 1530 1533 1537 1538 1539 1541 1544 1547 1550 1553 1555 1558 1559 1561 1563 1564 1566 1567 1568 1570 1571 1573 1574 1576 1577 1579 1581 1583 1585 1587 1588 1589 1589 1589 1588
1515 1519 1513 1513 1517 1520 1522 1520 1518 1517 1523 1520 1520 1525 1531 1534 1538 1540 1541 1542 1544 1547 1550 1553 1556 1558 1560 1561 1563 1565 1567 1568 1570 1571 1573 1575 1576 1577 1580 1582 1584 1586 1587 1589 1590 1591 1591 1591 1590
1513 1514 1512 1516 1517 1518 1520 1521 1518 1516 1514 1519 1522 1525 1531 1535 1538 1540 1542 1544 1546 1548 1550 1553 1555 1558 1560 1562 1564 1566 1567 1569 1571 1573 1574 1576 1578 1579 1582 1585 1587 1588 1589 1590 1591 1592 1592 1592 1591
1511 1511 1512 1512 1514 1517 1518 1518 1518 1519 1518 1521 1525 1529 1532 1535 1537 1540 1543 1546 1547 1549 1551 1553 1556 1558 1560 1562 1564 1566 1567 1570 1572 1573 1575 1577 1579 1581 1584 1587 1589 1590 1591 1592 1593 1593 1593 1593 1593
1505 1512 1516 1514 1517 1520 1520 1512 1516 1519 1520 1523 1525 1531 1533 1534 1537 1541 1544 1546 1548 1550 1552 1554 1556 1558 1560 1562 1564 1566 1568 1570 1572 1574 1576 1578 1580 1583 1585 1588 1590 1591 1593 1594 1595 1595 1595 1594 1594
1506 1514 1519 1524 1521 1520 1518 1521 1517 1514 1520 1523 1526 1529 1533 1534 1537 1539 1541 1545 1547 1550 1553 1554 1556 1558 1560 1563 1565 1567 1568 1569 1571 1574 1577 1579 1581 1584 1586 1589 1590 1592 1593 1595 1595 1596 1595 1595 1594
1507 1512 1524 1529 1523 1518 1523 1525 1516 1516 1519 1523 1526 1528 1531 1534 1535 1538 1540 1544 1547 1550 1552 1555 1556 1558 1560 1562 1565 1567 1568 1569 1571 1574 1577 1580 1582 1585 1587 1589 1591 1593 1594 1595 1595 1596 1596 1596 1595
1511 1526 1528 1523 1513 1514 1519 1517 1513 1517 1520 1522 1524 1527 1530 1532 1534 1536 1539 1541 1545 1548 1551 1554 1557 1558 1560 1562 1565 1567 1568 1570 1571 1574 1577 1580 1583 1585 1588 1590 1591 1593 1594 1595 1595 1596 1596 1596 1595
1524 1524 1516 1518 1507 1512 1511 1509 1510 1515 1518 1519 1521 1524 1527 1530 1531 1534 1537 1540 1543 1546 1550 1553 1556 1559 1562 1564 1566 1567 1569 1571 1572 1574 1577 1580 1583 1585 1587 1589 1591 1593 1594 1595 1595 1596 1596 1596 1595
1511 1516 1519 1505 1497 1505 1505 1507 1507 1511 1518 1520 1520 1521 1522 1526 1530 1532 1536 1538 1542 1546 1548 1551 1554 1557 1560 1562 1564 1566 1568 1571 1572 1575 1577 1580 1583 1585 1587 1589 1591 1593 1594 1595 1596 1596 1596 1596 1596
1512 1518 1518 1504 1495 1499 1496 1503 1501 1504 1505 1509 1513 1517 1518 1522 1526 1529 1532 1535 1538 1542 1546 1549 1552 1555 1558 1561 1564 1566 1568 1570 1573 1575 1577 1580 1583 1585 1587 1589 1591 1593 1594 1595 1596 1596 1596 1596 1596
1516 1515 1513 1515 1499 1494 1495 1504 1502 1502 1503 1508 1512 1511 1514 1516 1519 1524 1527 1531 1535 1538 1542 1546 1549 1552 1555 1559 1562 1564 1567 1569 1571 1573 1575 1578 1582 1584 1586 1588 1590 1592 1592 1593 1595 1595 1596 1596 1596
1523 1507 1507 1509 1513 1524 1495 1527 1502 1497 1499 1501 1504 1506 1507 1510 1513 1518 1520 1525 1529 1533 1538 1542 1546 1549 1552 1556 1559 1562 1565 1567 1570 1572 1575 1578 1581 1583 1585 1587 1589 1590 1592 1592 1593 1594 1594 1595 1595
1515 1505 1508 1505 1512 1511 1505 1521 1502 1491 1500 1497 1495 1496 1499 1502 1505 1510 1513 1518 1523 1529 1533 1538 1542 1546 1549 1553 1556 1560 1563 1566 1569 1571 1574 1576 1579 1581 1583 1585 1587 1588 1590 1591 1592 1593 1593 1594 1595
1502 1503 1504 1505 1516 1535 1510 1512 1495 1496 1486 1481 1482 1485 1486 1492 1499 1504 1508 1514 1519 1524 1529 1533 1537 1541 1545 1549 1552 1556 1560 1563 1566 1568 1571 1573 1576 1579 1581 1583 1585 1586 1588 1590 1591 1592 1592 1593 1593
1511 1520 1546 1538 1538 1534 1507 1514 1486 1471 1465 1464 1467 1470 1476 1483 1490 1498 1502 1508 1513 1518 1523 1528 1532 1536 1540 1544 1548 1552 1556 1560 1563 1566 1568 1571 1573 1575 1578 1580 1582 1583 1586 1588 1589 1590 1591 1591 1591
1519 1521 1546 1546 1549 1533 1502 1516 1489 1462 1454 1455 1458 1458 1466 1475 1481 1488 1492 1498 1504 1510 1516 1521 1526 1531 1535 1539 1543 1548 1553 1556 1559 1563 1566 1569 1571 1572 1574 1577 1579 1581 1583 1585 1585 1586 1587 1587 1588
1515 1526 1514 1528 1526 1536 1516 1493 1471 1458 1453 1452 1452 1455 1459 1465 1471 1477 1483 1490 1497 1503 1509 1514 1520 1525 1529 1534 1539 1543 1548 1552 1555 1559 1563 1566 1568 1570 1572 1574 1576 1578 1579 1580 1581 1582 1582 1583 1584
1516 1512 1530 1535 1533 1535 1519 1502 1493 1470 1459 1449 1447 1448 1448 1454 1462 1469 1476 1482 1489 1496 1502 1508 1514 1519 1523 1529 1533 1538 1543 1548 1552 1555 1558 1561 1564 1566 1569 1571 1573 1574 1576 1578 1579 1579 1580 1580 1580
1523 1528 1523 1529 1537 1538 1535 1511 1470 1465 1456 1447 1436 1437 1441 1449 1455 1459 1467 1473 1480 1488 1496 1502 1508 1514 1519 1523 1528 1532 1537 1543 1547 1550 1554 1558 1560 1562 1565 1568 1569 1570 1573 1575 1576 1576 1576 1576 1576
1518 1521 1528 1541 1539 1533 1531 1508 1463 1461 1453 1447 1439 1436 1441 1446 1453 1461 1469 1472 1476 1483 1490 1495 1501 1507 1512 1517 1522 1527 1532 1538 1542 1545 1550 1554 1556 1559 1562 1565 1566 1567 1568 1570 1572 1572 1572 1572 1572